Regional Weather Roundup
Issued by NWS State College, PA

Home | Current Version | Previous Version | Text Only | Print | Product List | Glossary Off
Versions: 1 2 3 4 5 6 7 8 9 10 11 12 13 14 15 16 17 18 19 20 21 22 23 24 25 26 27 28 29 30 31 32 33 34 35 36 37 38 39 40 41 42 43 44 45 46 47 48 49 50

566
ASUS41 KCTP 241810
RWRCTP

REGIONAL WEATHER ROUNDUP
NATIONAL WEATHER SERVICE STATE COLLEGE PA
200 PM EDT SAT SEP 24 2016

Note: "fair" indicates few or no clouds below 12,000 feet with no
significant weather and/or obstructions to visibility.

* = STATION THAT DOES NOT REPORT PRECIPITATION /E.G. RAIN...SNOW...ETC/
    THUNDER OR FOG.

PAZ002>004-007>009-013>016-020>023-029>032-241900-
WESTERN PENNSYLVANIA

CITY           SKY/WX    TMP DP  RH WIND       PRES   REMARKS
ERIE           MOSUNNY   65  49  56 NE21      30.23F
MEADVILLE      SUNNY     65  47  52 NE7       30.21F
FRANKLIN*        N/A     66  48  52 NE12      30.21F
NEW CASTLE     FAIR      68  52  56 N9        30.20F
BEAVER COUNTY  MOSUNNY   70  54  56 N3        30.19F
BUTLER*        PTSUNNY   66  54  63 NE6       30.22F
PITTSBURGH INT MOSUNNY   70  59  68 NE10      30.18F
PITTSBURGH     CLOUDY    66  56  70 VRB7      30.18S
INDIANA*       CLOUDY    64  55  72 N5        30.22S
LATROBE        CLOUDY    64  57  77 N6        30.19F
WASHINGTON CO* CLOUDY    70  59  68 N6        30.18F
$$

PAZ004>006-010>012-017>019-024>028-033>037-041-042-045-046-049>053-241900-
CENTRAL PENNSYLVANIA

CITY           SKY/WX    TMP DP  RH WIND       PRES   REMARKS
BRADFORD       SUNNY     63  45  51 NW9       30.20F
DUBOIS         SUNNY     67  43  41 MISG      30.18F
CLEARFIELD     SUNNY     69  43  38 NW8       30.18F
JOHNSTOWN      CLOUDY    62  55  77 N8        30.19S
ALTOONA        CLOUDY    64  51  62 E7        30.18F
STATE COLLEGE  SUNNY     68  45  42 NE6       30.17F
WILLIAMSPORT   SUNNY     71  44  37 N12       30.13F
SELINSGROVE    SUNNY     73  40  30 N10       30.14F
FT INDIANTOWN  MOSUNNY   70  52  53 VRB3      30.12F
CAPITAL CITY   PTSUNNY   71  46  40 NW9       30.12F
HARRISBURG     MOSUNNY   72  53  51 N9        30.11F
YORK           PTSUNNY   70  57  63 N8        30.12F
$$

PAZ038>040-043-044-047-048-054-055-060>062-067>071-241900-
EASTERN PENNSYLVANIA

CITY           SKY/WX    TMP DP  RH WIND       PRES   REMARKS
SCRANTON       SUNNY     68  47  46 N12G18    30.14F
MOUNT POCONO   SUNNY     63  43  48 N13G22    30.14F
ALLENTOWN      PTSUNNY   73  50  44 VRB3      30.11F
QUAKERTOWN*    MOCLDY    68  52  56 NE5       30.12F
READING        PTSUNNY   67  53  61 N6        30.11F
LANCASTER      CLOUDY    68  58  70 NW6       30.12F
COATESVILLE    CLOUDY    64  55  72 N7        30.14F
POTTSTOWN      CLOUDY    67  53  61 NE5       30.13F
BLUE BELL      CLOUDY    63  54  72 E3        30.11F
DOYLESTOWN     CLOUDY    70  53  54 VRB5      30.11F
WILLOW GROVE   NOT AVBL
NORTH PHILA    CLOUDY    69  53  56 NE7       30.13F
PHILADELPHIA   CLOUDY    67  55  65 NE6       30.11F
$$




USA.gov is the U.S. government's official web portal to all federal, state and local government web resources and services.